Regional Weather Roundup
Issued by NWS

Home | Current Version | Previous Version | Graphics & Text | Print | Product List | Glossary On
Versions: 1 2 3 4 5 6 7 8 9 10 11 12 13 14 15 16 17 18 19 20 21 22 23 24 25 26 27 28 29 30 31 32 33 34 35 36 37 38 39 40 41 42 43 44 45 46 47 48 49 50
000
ASUS43 KDMX 051507
RWRIA

WEATHER ROUNDUP FOR IOWA
NATIONAL WEATHER SERVICE DES MOINES IA
1000 AM CDT TUE MAY 05 2015

NOTE: "FAIR" INDICATES FEW OR NO CLOUDS BELOW 12,000 FEET WITH NO
SIGNIFICANT WEATHER AND/OR OBSTRUCTIONS TO VISIBILITY.

* - THESE STATIONS ARE NOT NWS STATIONS...THUS NOT UNDER NWS
QUALITY CONTROL.  THEY ALSO DO NOT REPORT WEATHER SUCH
AS PRECIPITATION OR FOG.

IAZ001>003-012>014-020>022-031>034-043>046-051600-
   NORTHWEST IOWA

CITY           SKY/WX    TMP DP  RH WIND       PRES   REMARKS
CARROLL *      CLOUDY    61  61 100 SE6       30.10S FOG
CHEROKEE *     CLOUDY    56  52  89 E10       30.09F
DENISON *      CLOUDY    57  57 100 N5        30.08S FOG
LE MARS *      CLOUDY    61  52  72 E12       30.10S
ORANGE CITY *  CLOUDY    57  50  77 E13       30.09S
SHELDON *      CLOUDY    61  54  77 E15       30.09S
SIOUX CITY     CLOUDY    57  53  86 SE7       30.09S
SPENCER        CLOUDY    57  53  86 E12       30.11S
STORM LAKE *   CLOUDY    54  54 100 E9        30.11S FOG
$$

IAZ055>058-069>071-079>083-090>094-051600-
   SOUTHWEST IOWA

CITY           SKY/WX    TMP DP  RH WIND       PRES   REMARKS
ATLANTIC *     PTSUNNY   64  61  88 S12       30.11R
AUDUBON *      PTSUNNY   64  61  88 S9        30.11R
CLARINDA *     CLOUDY    63  63 100 SE6       30.13S
COUNCIL BLFS * CLOUDY    64  64 100 SE9       30.10S
CRESTON *      CLOUDY    63  63 100 S10       30.13S
HARLAN  *      CLOUDY    64  64 100 S15       30.13S
LAMONI         PTSUNNY   69  61  75 S8        30.12F
RED OAK *      CLOUDY    64  63  94 SE6       30.11S
SHENANDOAH *   CLOUDY    64  63  94 SE10      30.11S
$$

IAZ047>049-059>061-072>074-084-051600-
   CENTRAL IOWA

CITY           SKY/WX    TMP DP  RH WIND       PRES   REMARKS
AMES           CLOUDY    66  63  90 S9        30.11S FOG
ANKENY *       PTSUNNY   66  63  88 S8        30.11R
CHARITON *     CLOUDY    66  63  88 S9        30.13S
DES MOINES     CLOUDY    67  61  81 S10       30.11S
GRINNELL*      CLOUDY    63  60  91 S6        30.14R
KNOXVILLE *    CLOUDY    66  61  82 S9        30.11F
MARSHALLTOWN   LGT RAIN  61  60  97 E7        30.12S FOG
PELLA *        CLOUDY    65  65 100 S6        30.14S
PERRY *        PTSUNNY   66  63  90 S12       30.10S
$$

IAZ004>006-015-016-023>025-035-036-051600-
   NORTH CENTRAL IOWA

CITY           SKY/WX    TMP DP  RH WIND       PRES   REMARKS
ALGONA *       CLOUDY    57  57 100 E9        30.14R FOG
CLARION *      CLOUDY    57  57 100 E14       30.13R FOG
ESTHERVILLE    LGT RAIN  56  53  90 E12       30.12S FOG
FORT DODGE *   CLOUDY    59  55  88 E9        30.13R
MASON CITY     LGT RAIN  53  52  96 E18       30.16S
FOREST CITY *  RAIN      54  52  94 E14G22    30.15R
IOWA FALLS *   CLOUDY    61  59  95 SE10      30.14R FOG
$$

IAZ007>011-017>019-026>030-037>042-050>054-066-051600-
   NORTHEAST IOWA

CITY           SKY/WX    TMP DP  RH WIND       PRES   REMARKS
CEDAR RAPIDS   FOG       61  61 100 E9        30.15S VSB 1/4
CHARLES CITY * CLOUDY    52  52 100 E17       30.17F
CLINTON *      CLOUDY    57  54  88 E12       30.22R
DECORAH *      LGT RAIN  52  50  93 E16       30.20S
DUBUQUE        CLOUDY    52  51  97 E10       30.21R
MONTICELLO *   CLOUDY    55  55 100 E10G16    30.19R
OELWEIN *      CLOUDY    54  52  94 E15       30.18S FOG
WATERLOO       CLOUDY    55  54  96 E12       30.15R
$$

IAZ064-065-067-068-078-051600-
   EAST CENTRAL IOWA

CITY           SKY/WX    TMP DP  RH WIND       PRES   REMARKS
DAVENPORT      CLOUDY    60  57  89 E8        30.18S FOG
IOWA CITY      CLOUDY    66  62  87 SE6       30.17R
MT. PLEASANT * MOSUNNY   68  65  89 S7        30.15S
MUSCATINE *    CLOUDY    68  63  83 SE6       30.16R
QUAD CITIES    CLOUDY    62  59  90 E8        30.17S FOG
$$

IAZ062-063-075>077-085>089-095>099-051600-
   SOUTHEAST IOWA

CITY           SKY/WX    TMP DP  RH WIND       PRES   REMARKS
BURLINGTON     PTSUNNY   67  65  93 SE8       30.15S
FAIRFIELD *    MOSUNNY   70  63  78 S9G16     30.14S
FORT MADISON * MOSUNNY   68  64  88 SE6       30.16S
KEOKUK *       MOSUNNY   70  64  83 VRB3      30.15S
OSKALOOSA *      N/A     68  62  82 S9        30.13S
CENTERVILLE *    N/A     68  66  94 SE7       30.16S
OTTUMWA        MOSUNNY   68  64  87 S8        30.13S
WASHINGTON *   MOSUNNY   70  70 100 SW9       30.15R
$$

ABBREVIATIONS USED IN REMARKS
   TC - TEMPERATURES IN CELSIUS
  WCI - WIND CHILL INDEX
   HX - HEAT INDEX
  VSB - VISIBILITY
$$




USA.gov is the U.S. government's official web portal to all federal, state and local government web resources and services.